Tracking 28790 objects as of 19-Apr-2024
HD Live streaming from Space Station
objects crossing your sky now

STARLINK-3989

Track STARLINK-3989 now!
10-day predictions
STARLINK-3989 is classified as:


NORAD ID: 52630
Int'l Code: 2022-052AJ
Perigee: 545.9 km
Apogee: 547.9 km
Inclination: 53.2 °
Period: 95.4 minutes
Semi major axis: 6917 km
RCS: Unknown
Launch date: May 14, 2022
Source: United States (US)
Launch site: AIR FORCE EASTERN TEST RANGE (AFETR)
Your satellite tracking list
Your tracking list is empty




NASA's NSSDC Master Catalog

Two Line Element Set (TLE):
1 52630U 22052AJ  24109.43518621  .00001943  00000-0  14014-3 0  9993
2 52630  53.2157 127.7932 0001415  95.2215 264.8939 15.08837700106789
Source of the keplerian elements: AFSPC